Content
SEND FEEDBACK

Daily
Averages
Monthly
Summary
Canada

MONTREAL, QUEBEC


Home > North America > Canada > Quebec
Elevation: 118 feet     Latitude: 45 28N     Longitude: 073 45W

WEATHER
 
SELECT A DAY
Number of Records: 198,145;   Date Range: 1/1/95 - 7/28/14
 
SHARE

PRINT THIS DATA

[ ← Previous Day ]
WEATHER ALMANAC - MAY 14, 2013
[ Next Day → ]
[ °C ]   °F
Weather ElementAverageHighLow
Temperature47.1 °F57.2 °F (2:00 pm)33.8 °F (2:00 am)
Dewpoint27 °F33.8 °F (7:00 am)21.2 °F (5:00 pm)
Humidity48.6 %87 % (5:00 am)22 % (8:00 pm)
Barometer30.06 in30.12 in (8:00 am)29.99 in (7:00 pm)
Wind Speed6.9 mph17.3 mph (12:00 pm)
Wind Gust24.2 mph (3:00 pm)
Weather ElementAverage
Visibility24.1 mi
Wind DirectionSSW (216.5 °)

Weather ElementTotal
Precipitation---
Heating Degree Days19.5 (Base 65)
Averaged from 26 records on May 14, 2013
WEATHER CONDITIONS BREAKOUT
WIND DIRECTION BREAKOUT
WEATHER BY HOUR - MAY 14, 2013
[ °C ]   °F
Local TimeTemperatureDewpointHumidityBarometerVisibilityWind DirectionWind SpeedGust SpeedPrecipitationEventsConditions
1:00 AM39.2 °F28.4 °F65 %30.06 in15.0 miCalmClear
2:00 AM35.0 °F29.0 °F70 %30.07 in15.0 miSSW (210°)2.3 mph
2:00 AM33.8 °F28.4 °F81 %30.06 in15.0 miSSW (210°)2.3 mphClear
3:00 AM35.6 °F28.4 °F75 %30.07 in15.0 miWSW (250°)3.5 mphClear
4:00 AM33.8 °F28.4 °F81 %30.08 in15.0 miWSW (240°)2.3 mphClear
5:00 AM33.8 °F30.2 °F87 %30.09 in15.0 miWest (260°)3.5 mphMostly Cloudy
6:00 AM35.6 °F30.2 °F81 %30.09 in15.0 miCalmScattered Clouds
7:00 AM41.0 °F33.8 °F76 %30.11 in30.0 miWNW (290°)2.3 mphPartly Cloudy
8:00 AM44.0 °F28.0 °F41 %30.12 in28.0 miWSW (240°)4.6 mphScattered Clouds
8:00 AM44.6 °F28.4 °F53 %30.12 in30.0 miWSW (250°)4.6 mphPartly Cloudy
9:00 AM46.4 °F28.4 °F50 %30.11 in30.0 miSSW (200°)6.9 mphPartly Cloudy
10:00 AM48.2 °F28.4 °F46 %30.10 in30.0 miSW (220°)9.2 mphPartly Cloudy
11:00 AM51.8 °F23.0 °F33 %30.09 in30.0 miWest (260°)9.2 mphPartly Cloudy
12:00 PM51.8 °F24.8 °F35 %30.08 in30.0 miSW (220°)17.3 mphScattered Clouds
1:00 PM53.6 °F24.8 °F33 %30.07 in30.0 miSSW (210°)12.7 mphScattered Clouds
2:00 PM57.2 °F24.8 °F29 %30.06 in30.0 miSW (220°)15.0 mph21.9 mphScattered Clouds
3:00 PM55.4 °F26.6 °F33 %30.05 in30.0 miSouth (180°)12.7 mph24.2 mphScattered Clouds
4:00 PM57.2 °F23.0 °F27 %30.02 in30.0 miWSW (250°)9.2 mph18.4 mphScattered Clouds
5:00 PM57.2 °F21.2 °F25 %30.01 in30.0 miWest (280°)11.5 mphPartly Cloudy
6:00 PM57.2 °F23.0 °F27 %30.00 in30.0 miWest (270°)9.2 mphPartly Cloudy
7:00 PM57.2 °F23.0 °F27 %29.99 in30.0 miWSW (240°)8.1 mphClear
8:00 PM54.0 °F26.0 °F22 %29.99 in28.0 miWSW (240°)8.1 mphScattered Clouds
8:00 PM53.6 °F26.6 °F35 %29.99 in30.0 miSW (230°)6.9 mphClear
9:00 PM50.0 °F28.4 °F43 %30.00 in15.0 miSW (230°)6.9 mphClear
10:00 PM50.0 °F28.4 °F43 %30.01 in15.0 miSW (220°)5.8 mphClear
11:00 PM48.2 °F28.4 °F46 %30.00 in15.0 miSSW (210°)5.8 mphClear
Hourly data recorded from CYUL, located miles away from Montreal, Quebec







STORIES FROM OUR PARTNERS